Torna al catalogo

DELTA 1 DEB

AttivoSSO
NORAD 2223·DEBRIS·🇺🇸 United States

Lanciato Feb 28, 1966 da Cape Canaveral Space Force Station

Loading…

Prossimi Passaggi (prossime 24 ore)

TLE

AggiornatoSource: Space-Track

Epoca: Sep 14, 2026, 00:26 UTC

1 02223U 66016C   26257.01858163 -.00000031  00000-0  46742-4 0  9994
2 02223 100.7252 282.3229 0093925  22.7355   7.1861 12.87776937838399

Traccia DELTA 1 DEB in tempo reale con AllMySat

Download on the App Store